[[{"header":{"parameterUnit":"m.s-1","parameterCategory":1,"la1":30.2991,"la2":30.254,"lo1":-89.0895,"lo2":-89.0444,"dy":0.0017,"dx":0.0017,"nx":28,"ny":28,"refTime":"2025-03-22T03:00:00:Z","depth":0,"parameterNumber":2,"parameterNumberName":"U-component_of_WINDS"},"data":[0,0,0,0,0,0,0,0,0,0,0,0,0,0,0,0,0,0,0,0,0,0,0,0,0,0,0,0,0,0,0,0,0,0,0,0,0,0,0,0,0,0,0,0,0,0,0,0,0,0,0,0,0,0,0,0,0,0,-1.7924,-1.7924,0,-1.793,-1.7931,-1.7931,-1.7912,-1.7912,-1.7911,-1.7911,-1.7917,-1.7918,-1.7919,0,0,0,0,0,0,0,0,0,0,0,0,0,-1.7898,-1.7899,-1.7924,-1.7924,-1.7925,-1.793,-1.7931,-1.7931,-1.7912,-1.7912,-1.7911,-1.791,-1.7917,-1.7918,-1.7919,0,0,0,0,0,0,0,0,0,0,0,0,0,-1.7908,-1.7899,-1.7924,-1.7916,-1.7915,-1.793,-1.7931,-1.7931,-1.7912,-1.7912,-1.7911,-1.791,-1.7917,-1.7918,-1.7919,-1.7942,0,0,-1.7922,-1.7922,0,0,0,0,0,0,0,0,-1.7907,-1.7909,-1.7917,-1.7917,-1.7916,-1.792,-1.7924,-1.7935,-1.7913,-1.7914,-1.7911,-1.791,-1.7919,-1.792,-1.7923,-1.7943,-1.7943,-1.7922,-1.7923,-1.7923,-1.7924,0,0,0,0,0,0,0,-1.7906,-1.7908,-1.7927,-1.7917,-1.7917,-1.7913,-1.7913,-1.7926,-1.7921,-1.7913,-1.7912,-1.7913,-1.7918,-1.7922,-1.7923,-1.7943,-1.7922,-1.7923,-1.7924,-1.7924,-1.7983,-1.7984,0,0,0,0,0,0,-1.7907,-1.7908,-1.7927,-1.7927,-1.7909,-1.7914,-1.7914,-1.7919,-1.7921,-1.792,-1.7914,-1.7912,-1.792,-1.7921,-1.7923,-1.795,-1.7923,-1.7924,-1.7925,-1.7982,-1.7983,-1.7984,0,0,0,0,0,0,-1.7906,-1.7909,-1.7926,-1.7917,-1.7919,-1.7915,-1.7921,-1.792,-1.7923,-1.7921,-1.792,-1.7918,-1.792,-1.7921,-1.7938,-1.795,-1.7925,-1.7926,-1.7981,-1.7983,-1.7984,-1.8006,0,0,0,0,0,0,-1.7906,-1.7909,-1.7917,-1.7917,-1.792,-1.7941,-1.7922,-1.7921,-1.7925,-1.7923,-1.7925,-1.7924,-1.7919,-1.7936,-1.7939,-1.7951,-1.7926,-1.798,-1.7982,-1.7983,-1.8004,-1.8008,-1.8011,0,0,0,0,0,-1.7905,-1.7923,-1.7917,-1.792,-1.793,-1.7941,-1.7943,-1.7936,-1.7926,-1.7935,-1.7934,-1.7924,-1.7949,-1.7938,-1.7941,-1.7954,-1.7979,-1.7981,-1.7983,-1.8002,-1.8007,-1.8011,0,0,0,0,0,0,-1.7924,-1.7923,-1.7917,-1.7935,-1.7939,-1.7938,-1.7949,-1.7942,-1.7948,-1.7946,-1.7938,-1.7939,-1.7956,-1.7957,-1.7945,-1.7977,-1.7962,-1.7965,-1.7976,-1.798,-1.7984,-1.7983,-1.7927,0,0,0,0,0,-1.793,-1.794,-1.7938,-1.7955,-1.7957,-1.7953,-1.7958,-1.7953,-1.7956,-1.7957,-1.7957,-1.796,-1.7969,-1.7975,-1.7983,-1.8004,-1.8004,-1.8015,-1.8018,-1.8021,-1.8024,-1.8035,-1.804,-1.7991,-1.7991,-1.7991,0,0,-1.7944,-1.7944,-1.795,-1.7959,-1.7961,-1.7971,-1.7954,-1.7965,-1.7973,-1.7959,-1.7974,-1.7974,-1.7978,-1.7997,-1.8005,-1.7998,-1.8037,-1.8024,-1.8026,-1.8027,-1.8038,-1.8043,-1.8047,-1.7993,-1.7992,-1.7992,0,0,-1.7973,-1.7974,-1.7988,-1.7991,-1.7994,-1.7991,-1.7995,-1.7996,-1.7996,-1.8011,-1.8001,-1.801,-1.8025,-1.8028,-1.8032,-1.8064,-1.8055,-1.8067,-1.8085,-1.8097,-1.8101,-1.8104,-1.8115,-1.8119,-1.8069,-1.8069,-1.8069,0,-1.7989,-1.8003,-1.7997,-1.8009,-1.8013,-1.8001,-1.8016,-1.8019,-1.8024,-1.8028,-1.8019,-1.8038,-1.804,-1.806,-1.8068,-1.8071,-1.8075,-1.8066,-1.81,-1.8104,-1.8107,-1.8118,-1.8122,-1.807,-1.807,-1.807,-1.807,0,-1.8023,-1.8033,-1.8044,-1.805,-1.8056,-1.8069,-1.8065,-1.8072,-1.8067,-1.8065,-1.8081,-1.8083,-1.8091,-1.8096,-1.8091,-1.8115,-1.8111,-1.8102,-1.8086,-1.8113,-1.8123,-1.8127,-1.8072,-1.8072,-1.8071,-1.8071,0,0,-1.8063,-1.8066,-1.807,-1.8073,-1.8076,-1.8084,-1.8098,-1.8105,-1.8111,-1.8116,-1.8127,-1.8141,-1.8133,-1.8137,-1.8132,-1.8143,-1.8168,-1.8133,-1.8133,-1.8139,-1.8195,-1.8202,-1.8207,-1.8163,-1.8164,-1.8165,-1.8195,0,-1.8092,-1.8114,-1.8109,-1.8131,-1.814,-1.813,-1.8142,-1.8145,-1.8145,-1.8153,-1.8153,-1.8162,-1.8151,-1.8153,-1.8163,-1.8163,-1.8179,-1.8161,-1.8173,-1.8174,-1.8172,-1.8212,-1.8218,-1.8247,-1.8199,-1.82,-1.82,0,-1.8128,-1.8134,-1.8157,-1.8159,-1.8163,-1.8173,-1.8181,-1.8189,-1.8193,-1.8192,-1.8197,-1.8191,-1.8205,-1.8191,-1.821,-1.8197,-1.8202,-1.8203,-1.8204,-1.8204,-1.8188,-1.8213,-1.8256,-1.826,-1.8206,-1.8206,-1.8205,0,-1.8154,-1.8169,-1.8184,-1.8187,-1.819,-1.8198,-1.82,-1.8203,-1.8209,-1.8215,-1.8219,-1.8227,-1.8232,-1.8239,-1.8235,-1.8225,-1.8255,-1.824,-1.8255,-1.8255,-1.8261,-1.826,-1.8305,-1.8265,-1.8265,-1.8265,-1.8265,0,-1.8186,-1.8201,-1.8196,-1.8206,-1.8222,-1.8217,-1.8233,-1.8234,-1.8237,-1.8247,-1.8239,-1.8249,-1.8244,-1.8253,-1.8251,-1.8267,-1.8269,-1.8269,-1.8268,-1.8269,-1.8269,-1.8272,-1.827,-1.8266,-1.8266,-1.8265,-1.8265,0,-1.8219,-1.8216,-1.8232,-1.8235,-1.8236,-1.8247,-1.8249,-1.8258,-1.8258,-1.827,-1.8273,-1.8272,-1.8283,-1.828,-1.8292,-1.8291,-1.8311,-1.8308,-1.8309,-1.8309,-1.8323,-1.8321,-1.837,-1.8376,-1.8333,-1.8334,-1.8334,0,-1.8239,-1.825,-1.8253,-1.8259,-1.8261,-1.8271,-1.8277,-1.8273,-1.8279,-1.8285,-1.8294,-1.8304,-1.8312,-1.833,-1.833,-1.8339,-1.8336,-1.8353,-1.8337,-1.8338,-1.8336,-1.8335,-1.8336,-1.8355,-1.8356,-1.8356,-1.8356,0,-1.8275,-1.8274,-1.8282,-1.829,-1.8297,-1.8303,-1.8308,-1.8314,-1.831,-1.8318,-1.8329,-1.8335,-1.8347,-1.8357,-1.8366,-1.8369,-1.8362,-1.8361,-1.8365,-1.8366,-1.8367,-1.8366,-1.8317,-1.836,-1.836,-1.8359,-1.8359,-1.8359,-1.8302,-1.8311,-1.8315,-1.8325,-1.8328,-1.8334,-1.8343,-1.8343,-1.8352,-1.8362,-1.8359,-1.8372,-1.8377,-1.8388,-1.8391,-1.8401,-1.8395,-1.8401,-1.8402,-1.8403,-1.8405,-1.8366,-1.8403,-1.8403,-1.8403,-1.8403,-1.8403,0,-1.8337,-1.834,-1.8349,-1.8357,-1.8364,-1.8358,-1.8364,-1.8371,-1.8382,-1.8387,-1.8395,-1.8408,-1.8418,-1.842,-1.843,-1.8437,-1.8435,-1.844,-1.8439,-1.844,-1.841,-1.8405,-1.8442,-1.8442,-1.8442,-1.8442,-1.8442,-1.8442,-1.8357,-1.8372,-1.8371,-1.8389,-1.8391,-1.8403,-1.8407,-1.8413,-1.8417,-1.8432,-1.844,-1.8441,-1.8445,-1.8455,-1.8464,-1.8465,-1.8469,-1.8475,-1.8474,-1.8446,-1.8442,-1.8438,-1.8434,-1.8476,-1.8476,-1.8503,-1.8504,-1.8504]},{"header":{"parameterUnit":"m.s-1","parameterCategory":1,"la1":30.2991,"la2":30.254,"lo1":-89.0895,"lo2":-89.0444,"dy":0.0017,"dx":0.0017,"nx":28,"ny":28,"refTime":"2025-03-22T03:00:00:Z","depth":0,"parameterNumber":3,"parameterNumberName":"V-component_of_WINDS"},"data":[0,0,0,0,0,0,0,0,0,0,0,0,0,0,0,0,0,0,0,0,0,0,0,0,0,0,0,0,0,0,0,0,0,0,0,0,0,0,0,0,0,0,0,0,0,0,0,0,0,0,0,0,0,0,0,0,0,0,4.6748,4.6748,0,4.6774,4.6775,4.6775,4.6764,4.6764,4.6763,4.6762,4.6787,4.6788,4.6789,0,0,0,0,0,0,0,0,0,0,0,0,0,4.6685,4.6686,4.6748,4.6748,4.6748,4.6774,4.6775,4.6775,4.6764,4.6763,4.6763,4.6762,4.6786,4.6788,4.6789,0,0,0,0,0,0,0,0,0,0,0,0,0,4.6712,4.6686,4.6748,4.6746,4.6746,4.6774,4.6775,4.6775,4.6764,4.6763,4.6763,4.6762,4.6786,4.6788,4.6789,4.682,0,0,4.6795,4.6796,0,0,0,0,0,0,0,0,4.671,4.6714,4.6746,4.6746,4.6747,4.6765,4.6762,4.679,4.6765,4.6757,4.6762,4.6761,4.678,4.6782,4.6789,4.6821,4.6822,4.6795,4.6796,4.6797,4.6798,0,0,0,0,0,0,0,4.6708,4.6713,4.6758,4.6747,4.6747,4.6743,4.6746,4.6767,4.6774,4.6758,4.6757,4.6761,4.678,4.6788,4.679,4.6822,4.6795,4.6797,4.6798,4.6799,4.6879,4.688,0,0,0,0,0,0,4.6707,4.6711,4.6757,4.6759,4.6726,4.6745,4.6748,4.676,4.6773,4.6775,4.6762,4.676,4.6785,4.6788,4.6791,4.6826,4.6797,4.6799,4.68,4.6878,4.6879,4.688,0,0,0,0,0,0,4.6706,4.6711,4.6756,4.6735,4.6741,4.6747,4.676,4.6761,4.6769,4.6776,4.6777,4.6768,4.6784,4.6788,4.6813,4.6827,4.68,4.6801,4.6877,4.6878,4.688,4.6897,0,0,0,0,0,0,4.6704,4.6711,4.6723,4.6735,4.6742,4.6778,4.6761,4.6762,4.6772,4.6771,4.6782,4.6784,4.6784,4.681,4.6814,4.6829,4.6803,4.6876,4.6878,4.6879,4.6896,4.6899,4.6903,0,0,0,0,0,4.6702,4.6726,4.6723,4.6729,4.6757,4.6779,4.6783,4.6783,4.6773,4.6785,4.679,4.6783,4.6825,4.6812,4.6817,4.6833,4.6875,4.6877,4.6879,4.6894,4.6899,4.6903,0,0,0,0,0,0,4.6713,4.6728,4.6725,4.6754,4.6766,4.6777,4.6792,4.6788,4.6802,4.68,4.68,4.6802,4.6827,4.6833,4.6819,4.6862,4.6848,4.6851,4.6858,4.6862,4.6866,4.6863,4.6804,0,0,0,0,0,4.672,4.6738,4.6749,4.6774,4.678,4.6785,4.6795,4.6795,4.6806,4.681,4.6817,4.6828,4.6843,4.6853,4.6868,4.6897,4.6899,4.691,4.6913,4.6916,4.6919,4.6934,4.6938,4.6888,4.6888,4.6888,0,0,4.6732,4.6742,4.6753,4.6776,4.6785,4.6803,4.6789,4.6808,4.6821,4.6813,4.6836,4.6842,4.6854,4.6881,4.6893,4.6886,4.6933,4.6919,4.6922,4.6922,4.6937,4.6941,4.6946,4.689,4.6889,4.6889,0,0,4.6764,4.6774,4.6795,4.6805,4.6819,4.6823,4.6828,4.6841,4.6844,4.6868,4.6863,4.6877,4.6904,4.6913,4.6921,4.6957,4.6951,4.6962,4.6979,4.6994,4.6998,4.7001,4.7013,4.7017,4.6964,4.6964,4.6964,0,4.6777,4.6804,4.6807,4.6826,4.6836,4.6832,4.6853,4.6862,4.6879,4.6886,4.6878,4.6912,4.692,4.6948,4.6957,4.6964,4.6969,4.6959,4.6997,4.7001,4.7004,4.7015,4.702,4.6966,4.6965,4.6965,4.6965,0,4.6819,4.6838,4.6854,4.6872,4.6884,4.6905,4.6909,4.6921,4.692,4.6924,4.6948,4.6958,4.6974,4.6981,4.698,4.7009,4.7005,4.6997,4.6983,4.701,4.702,4.7025,4.6967,4.6967,4.6966,4.6966,0,0,4.6857,4.6878,4.6883,4.6892,4.6908,4.6922,4.6942,4.6959,4.6968,4.6981,4.6997,4.7021,4.7014,4.7023,4.7023,4.7036,4.7063,4.7027,4.7028,4.7032,4.7095,4.7099,4.7104,4.706,4.7061,4.7062,4.7093,0,4.6889,4.6925,4.6928,4.696,4.6977,4.6974,4.6991,4.7002,4.7007,4.7021,4.7027,4.7043,4.7034,4.7039,4.7052,4.7057,4.7075,4.7055,4.7073,4.7074,4.7069,4.7109,4.7114,4.7143,4.7097,4.7098,4.7099,0,4.693,4.6946,4.698,4.6993,4.7,4.7016,4.7032,4.7046,4.7059,4.7061,4.7072,4.707,4.709,4.7077,4.7103,4.7089,4.7097,4.7101,4.7102,4.7103,4.7087,4.7109,4.7153,4.7157,4.7105,4.7105,4.7104,0,4.6953,4.6982,4.7006,4.7013,4.703,4.7041,4.7048,4.706,4.707,4.7084,4.7091,4.7106,4.7114,4.7126,4.7129,4.7119,4.7155,4.7142,4.7157,4.7156,4.7163,4.7162,4.7207,4.7171,4.7171,4.7171,4.7171,0,4.6987,4.7008,4.7016,4.7031,4.7054,4.7057,4.7079,4.7086,4.7097,4.7112,4.711,4.7124,4.7127,4.7142,4.7144,4.7165,4.7169,4.7171,4.7171,4.717,4.717,4.7174,4.7171,4.7172,4.7172,4.7171,4.7171,0,4.7015,4.7022,4.7048,4.7063,4.7067,4.7083,4.7094,4.7108,4.7113,4.7132,4.7137,4.7145,4.7162,4.7166,4.7186,4.7187,4.7212,4.7211,4.7208,4.7207,4.7222,4.722,4.7269,4.7276,4.7237,4.7237,4.7237,0,4.7036,4.7052,4.7068,4.7079,4.7087,4.7104,4.7115,4.7119,4.713,4.7146,4.7157,4.7174,4.7188,4.7215,4.7222,4.7237,4.7235,4.7252,4.7238,4.7236,4.7234,4.7233,4.7234,4.7254,4.7254,4.7255,4.7255,0,4.7071,4.7074,4.709,4.7108,4.7121,4.7134,4.7147,4.7156,4.7162,4.7174,4.7192,4.7203,4.7224,4.724,4.7256,4.7262,4.7259,4.726,4.7264,4.7262,4.726,4.726,4.7214,4.7258,4.7258,4.7258,4.7257,4.7257,4.7095,4.7109,4.7123,4.7141,4.7152,4.7164,4.7178,4.7185,4.72,4.7218,4.722,4.7239,4.7251,4.7272,4.728,4.7294,4.7289,4.7295,4.7296,4.7298,4.7298,4.7259,4.7297,4.7297,4.7297,4.7297,4.7297,0,4.713,4.7139,4.7155,4.7174,4.7188,4.7186,4.72,4.7212,4.7229,4.7241,4.7255,4.7275,4.7292,4.73,4.7316,4.7326,4.7325,4.733,4.7329,4.733,4.7302,4.7297,4.7331,4.7331,4.7331,4.7331,4.7331,4.7331,4.7149,4.7172,4.7177,4.7205,4.7214,4.7234,4.7242,4.7253,4.7263,4.7286,4.73,4.7306,4.7316,4.7333,4.7348,4.735,4.7355,4.7361,4.7362,4.7336,4.7332,4.7329,4.7323,4.7362,4.7362,4.7388,4.7388,4.7389]}]]